Theta_e
313 312 311 310 310 310 310 308 309 311 312 312 313 312 315 315 315 317 317 316 317 317
309 309 311 310 309 308 308 310 308 310 311 312 313 313 310 311 312 314 315 316 316 317
307 308 308 308 307 307 308 309 309 308 308 308 309 308 308 309 309 311 312 314 314 316
304 306 306 305 305 306 305 306 307 307 307 307 307 307 307 306 308 309 309 311 315 314
303 303 302 303 304 306 305 306 307 308 306 306 306 306 308 309 309 308 308 309 310 312
300 301 301 303 305 304 304 304 306 307 307 307 307 305 307 308 309 310 310 308 309 311
300 301 301 303 303 303 304 304 305 306 307 307 307 308 308 306 307 308 307 310 310 310
301 302 302 302 303 303 303 304 305 305 305 306 306 307 305 305 304 307 305 305 308 310
301 301 302 302 302 302 303 303 303 303 304 304 305 304 304 305 304 305 304 302 304 309
301 301 301 302 302 302 302 302 302 303 303 303 304 302 302 303 303 303 304 304 305 307
301 301 301 302 302 302 302 302 302 303 303 303 304 302 300 302 303 302 303 304 304 307
301 301 302 301 302 302 302 303 303 304 303 303 303 301 300 300 302 302 303 304 306 306
302 303 303 303 303 304 304 304 304 303 303 303 302 301 300 300 302 301 301 303 303 304
304 305 305 305 304 303 303 303 302 302 303 303 303 303 299 298 302 302 302 302 303 302
Wind_Speed
7 5 5 6 4 3 4 2 2 1 5 5 5 4 5 4 4 5 5 7 6 4
6 7 7 7 3 2 3 3 5 5 4 4 6 6 4 4 5 5 5 6 8 7
5 6 5 3 5 6 6 5 6 5 4 5 5 6 6 8 7 6 4 4 6 9
6 6 6 5 6 6 4 5 6 6 6 6 6 6 5 6 6 8 7 6 6 8
6 6 6 8 7 7 7 6 7 6 6 6 6 6 7 8 8 6 6 6 6 9
8 10 11 11 9 7 6 7 8 8 8 9 8 8 8 6 9 8 4 1 3 5
13 12 11 11 11 11 11 10 9 8 8 9 10 10 7 6 8 6 5 4 4 0
14 13 12 11 11 12 11 11 10 10 9 10 9 8 8 5 5 6 5 5 5 4
13 13 13 12 12 11 11 11 10 11 11 11 8 10 10 9 7 6 6 6 5 5
13 13 13 13 12 12 11 11 11 11 10 11 10 12 13 14 8 8 5 6 6 6
14 13 13 12 12 12 10 11 10 10 10 9 9 12 13 14 9 7 8 7 7 6
14 13 13 12 12 11 10 10 9 9 9 9 9 11 12 11 7 7 8 5 5 5
14 13 11 11 11 9 9 9 7 9 8 11 10 11 12 10 6 6 5 6 6 11
14 11 10 10 8 8 7 7 8 8 8 8 9 9 9 9 6 6 5 4 4 4
Wind_Direction
311 260 243 235 254 209 176 206 267 315 326 313 310 323 316 301 291 291 281 269 265 254
26 20 0 339 318 268 257 232 251 249 246 287 309 312 285 264 266 275 273 264 268 257
298 296 269 252 268 262 260 249 258 261 260 276 278 274 275 283 274 265 249 252 252 265
320 347 330 305 288 282 282 285 274 260 249 248 258 265 265 258 255 258 252 241 243 253
335 326 316 309 293 280 270 259 254 254 254 252 252 257 256 258 260 244 248 250 247 255
312 309 308 300 296 295 284 278 273 263 268 273 263 262 263 267 271 256 207 219 302 288
309 306 299 293 289 289 284 280 275 268 260 267 267 263 255 270 281 234 216 211 212 329
304 300 296 290 287 283 281 277 276 271 264 259 257 260 247 245 281 265 210 217 209 207
300 298 294 288 284 280 275 268 268 266 253 255 253 250 247 260 263 260 230 224 213 203
298 294 292 288 283 277 275 270 263 257 251 251 249 242 242 248 249 251 222 209 223 210
300 292 288 287 282 279 274 270 261 257 251 245 247 236 238 242 243 240 232 226 216 204
304 296 289 283 283 277 273 271 261 255 250 244 247 238 242 230 228 229 221 216 213 194
303 296 290 285 282 279 269 268 269 268 255 245 242 234 239 222 209 213 205 196 196 192
306 309 301 293 290 287 284 282 279 274 271 256 245 235 222 214 197 197 188 182 181 182